SCP
0 0 0 0 0 0 0 0 0 0 0 0 0 0 0 0 0 0 0 0 0 0 0 0 0 0 0
0 0 0 0 0 0 0 0 0 0 0 0 0 0 0 0 0 0 0 0 0 0 0 0 0 0 0
0 0 0 0 0 0 0 0 0 0 0 0 0 0 0 0 0 0 0 0 0 0 0 0 0 0 0
0 0 0 0 0 0 0 0 0 0 0 0 0 0 0 0 0 0 0 0 0 0 0 0 0 0 0
0 0 0 0 0 0 0 0 0 0 0 0 0 0 0 0 0 0 0 0 0 0 0 0 0 0 0
0 0 0 0 0 0 0 0 0 0 0 0 0 0 0 0 0 0 0 0 0 0 0 0 0 0 0
0 0 0 0 0 0 0 0 0 0 0 0 0 0 0 0 0 0 0 0 0 0 0 0 0 0 0
0 0 0 0 0 0 0 0 0 0 0 0 0 0 0 0 0 0 0 0 0 0 0 0 0 0 0
0 0 0 0 0 0 0 0 0 0 0 0 0 0 0 0 0 0 0 0 0 0 0 0 0 0 0
0 0 0 0 0 0 0 0 0 0 0 0 0 0 0 0 0 0 0 0 0 0 0 0 0 0 0
0 0 0 0 0 0 0 0 0 0 0 0 0 0 0 0 0 0 0 0 0 0 0 0 0 0 0
0 0 0 0 0 0 0 0 0 0 0 0 0 0 0 0 0 0 0 0 0 0 0 0 0 0 0
0 0 0 0 0 0 0 0 0 0 0 0 0 0 0 0 0 0 0 0 0 0 0 0 0 0 0
0 0 0 0 0 0 0 0 0 0 0 0 0 0 0 0 0 0 0 0 0 0 0 0 0 0 0
0 0 0 0 0 0 0 0 0 0 0 0 0 0 0 0 0 0 0 0 0 0 0 0 0 0 0
0 0 0 0 0 0 0 0 0 0 0 0 0 0 0 0 0 0 0 0 0 0 0 0 0 0 0
Wind_Speed_500mb
48 48 48 49 46 47 49 42 37 37 31 23 23 22 21 20 18 15 12 9 7 6 6 6 6 8 9
52 52 49 47 50 53 51 44 43 40 32 28 26 25 25 23 21 18 15 12 9 8 9 9 9 10 10
53 56 56 54 54 56 55 52 49 42 37 35 33 32 30 27 24 21 18 14 13 11 11 11 13 13 14
51 51 60 63 63 62 62 60 57 47 44 40 39 37 35 31 29 26 22 19 17 14 12 13 13 14 15
58 60 61 66 70 69 68 66 64 54 53 47 45 44 42 38 36 33 29 25 21 17 15 13 12 13 15
63 66 65 64 71 74 72 67 66 64 61 53 52 50 48 45 42 38 34 29 25 21 17 15 14 14 15
68 69 69 70 71 69 71 75 70 67 66 60 58 56 53 49 49 43 39 34 30 25 20 17 15 14 15
69 72 74 74 75 73 76 76 73 69 69 67 64 62 58 56 52 48 43 39 35 30 26 22 18 16 15
65 73 75 79 78 80 79 80 79 74 76 73 71 69 64 61 57 54 50 46 42 36 31 25 21 18 16
67 70 76 80 82 81 82 82 83 79 80 79 77 74 70 67 63 60 56 51 47 41 35 30 25 22 20
70 72 74 76 81 83 81 83 84 83 82 84 82 78 75 72 69 67 64 58 53 46 41 37 32 27 23
53 62 70 69 75 75 77 81 80 82 82 84 84 83 80 76 74 73 68 63 58 53 46 40 34 30 26
38 46 53 62 67 68 69 66 71 80 82 84 89 87 87 82 78 76 73 68 62 58 49 41 37 36 33
26 32 32 28 38 42 51 61 66 76 82 84 89 92 93 85 83 82 79 76 69 69 58 41 25 35 40
13 18 24 32 37 30 39 49 63 70 78 83 87 92 95 92 92 90 88 86 83 77 68 37 17 21 35
17 7 11 16 19 18 25 35 48 56 66 75 83 88 97 97 97 96 92 92 88 87 77 76 58 27 23
Wind_Direction_500mb
226 227 226 226 222 217 228 234 239 251 248 240 238 239 241 243 243 243 239 238 239 246 253 257 256 256 250
223 223 223 222 219 222 229 234 239 251 242 235 234 234 235 233 227 218 220 228 239 260 278 283 286 278 273
225 224 222 222 221 224 232 237 241 242 234 231 228 228 228 225 223 220 218 223 233 242 250 261 267 272 274
225 226 226 224 224 225 230 237 240 238 233 228 225 224 224 220 219 219 219 222 229 233 239 248 257 263 267
228 228 231 227 225 227 230 234 238 237 231 225 225 220 221 216 215 215 215 220 224 228 235 244 253 262 269
234 234 233 232 230 228 230 230 234 233 231 227 226 223 222 217 217 217 218 221 223 228 234 244 254 264 271
238 237 237 235 235 234 231 233 234 232 231 229 227 226 224 220 220 219 221 222 224 227 233 241 250 257 262
242 241 242 239 237 237 234 237 237 234 232 230 230 228 227 224 222 221 223 223 224 226 229 234 242 252 261
249 247 242 243 241 240 240 240 241 236 235 233 231 229 228 227 224 222 222 222 224 226 229 233 239 246 254
251 250 248 244 244 241 242 242 242 238 235 235 233 232 230 229 227 226 225 224 224 225 229 234 240 246 252
249 244 244 244 243 244 242 242 243 240 236 236 236 235 233 231 229 227 225 224 224 224 227 232 237 243 249
249 245 242 243 244 243 242 242 243 243 237 235 235 236 236 233 229 227 227 224 224 224 224 228 234 242 246
246 242 242 243 244 244 241 240 241 244 241 236 236 236 237 236 234 232 229 225 221 222 220 223 229 236 238
248 247 239 241 244 247 245 242 240 243 245 240 237 237 238 236 235 233 231 227 222 225 218 222 220 233 233
253 250 255 243 244 243 250 246 245 245 246 245 241 240 241 239 237 237 234 232 229 227 218 216 202 222 226
20 305 248 263 271 268 268 258 255 256 251 251 250 243 242 241 240 239 237 236 233 234 222 222 224 205 193
Wind_Speed_850mb
48 48 48 49 46 47 49 42 37 37 31 23 23 22 21 20 18 15 12 9 7 6 6 6 6 8 9
52 52 49 47 50 53 51 44 43 40 32 28 26 25 25 23 21 18 15 12 9 8 9 9 9 10 10
53 56 56 54 54 56 55 52 49 42 37 35 33 32 30 27 24 21 18 14 13 11 11 11 13 13 14
51 51 60 63 63 62 62 60 57 47 44 40 39 37 35 31 29 26 22 19 17 14 12 13 13 14 15
58 60 61 66 70 69 68 66 64 54 53 47 45 44 42 38 36 33 29 25 21 17 15 13 12 13 15
63 66 65 64 71 74 72 67 66 64 61 53 52 50 48 45 42 38 34 29 25 21 17 15 14 14 15
68 69 69 70 71 69 71 75 70 67 66 60 58 56 53 49 49 43 39 34 30 25 20 17 15 14 15
69 72 74 74 75 73 76 76 73 69 69 67 64 62 58 56 52 48 43 39 35 30 26 22 18 16 15
65 73 75 79 78 80 79 80 79 74 76 73 71 69 64 61 57 54 50 46 42 36 31 25 21 18 16
67 70 76 80 82 81 82 82 83 79 80 79 77 74 70 67 63 60 56 51 47 41 35 30 25 22 20
70 72 74 76 81 83 81 83 84 83 82 84 82 78 75 72 69 67 64 58 53 46 41 37 32 27 23
53 62 70 69 75 75 77 81 80 82 82 84 84 83 80 76 74 73 68 63 58 53 46 40 34 30 26
38 46 53 62 67 68 69 66 71 80 82 84 89 87 87 82 78 76 73 68 62 58 49 41 37 36 33
26 32 32 28 38 42 51 61 66 76 82 84 89 92 93 85 83 82 79 76 69 69 58 41 25 35 40
13 18 24 32 37 30 39 49 63 70 78 83 87 92 95 92 92 90 88 86 83 77 68 37 17 21 35
17 7 11 16 19 18 25 35 48 56 66 75 83 88 97 97 97 96 92 92 88 87 77 76 58 27 23
Wind_Direction_850mb
226 227 226 226 222 217 228 234 239 251 248 240 238 239 241 243 243 243 239 238 239 246 253 257 256 256 250
223 223 223 222 219 222 229 234 239 251 242 235 234 234 235 233 227 218 220 228 239 260 278 283 286 278 273
225 224 222 222 221 224 232 237 241 242 234 231 228 228 228 225 223 220 218 223 233 242 250 261 267 272 274
225 226 226 224 224 225 230 237 240 238 233 228 225 224 224 220 219 219 219 222 229 233 239 248 257 263 267
228 228 231 227 225 227 230 234 238 237 231 225 225 220 221 216 215 215 215 220 224 228 235 244 253 262 269
234 234 233 232 230 228 230 230 234 233 231 227 226 223 222 217 217 217 218 221 223 228 234 244 254 264 271
238 237 237 235 235 234 231 233 234 232 231 229 227 226 224 220 220 219 221 222 224 227 233 241 250 257 262
242 241 242 239 237 237 234 237 237 234 232 230 230 228 227 224 222 221 223 223 224 226 229 234 242 252 261
249 247 242 243 241 240 240 240 241 236 235 233 231 229 228 227 224 222 222 222 224 226 229 233 239 246 254
251 250 248 244 244 241 242 242 242 238 235 235 233 232 230 229 227 226 225 224 224 225 229 234 240 246 252
249 244 244 244 243 244 242 242 243 240 236 236 236 235 233 231 229 227 225 224 224 224 227 232 237 243 249
249 245 242 243 244 243 242 242 243 243 237 235 235 236 236 233 229 227 227 224 224 224 224 228 234 242 246
246 242 242 243 244 244 241 240 241 244 241 236 236 236 237 236 234 232 229 225 221 222 220 223 229 236 238
248 247 239 241 244 247 245 242 240 243 245 240 237 237 238 236 235 233 231 227 222 225 218 222 220 233 233
253 250 255 243 244 243 250 246 245 245 246 245 241 240 241 239 237 237 234 232 229 227 218 216 202 222 226
20 305 248 263 271 268 268 258 255 256 251 251 250 243 242 241 240 239 237 236 233 234 222 222 224 205 193